This is the latest recevied weather packets stored in our database for station/object WB5CFT. If no packets are shown the sender has not sent any weather packets the latest 10 day(s).
| Time | Temp. | Humidity | Pressure | Rain* | Wind** | Luminosity | Snow |
|---|---|---|---|---|---|---|---|
| 1777754897 | 18.33° C | 47% | 1023.9 hPa | 0 mm | - | 463 W/m² | - |
| 1777754594 | 17.78° C | 45% | 1023.9 hPa | 0 mm | - | 418 W/m² | - |
| 1777754292 | 17.78° C | 46% | 1024 hPa | 0 mm | - | 461 W/m² | - |
| 1777753989 | 18.33° C | 44% | 1024.1 hPa | 0 mm | - | 774 W/m² | - |
| 1777753689 | 18.89° C | 45% | 1024.2 hPa | 0 mm | - | 651 W/m² | - |
| 1777753387 | 17.78° C | 47% | 1024.1 hPa | 0 mm | - | 693 W/m² | - |
| 1777753085 | 17.78° C | 45% | 1024.1 hPa | 0 mm | - | 796 W/m² | - |
| 1777752781 | 18.89° C | 44% | 1024.2 hPa | 0 mm | - | 614 W/m² | - |
| 1777752477 | 17.22° C | 46% | 1024.2 hPa | 0 mm | - | 685 W/m² | - |
| 1777752173 | 17.78° C | 46% | 1024.6 hPa | 0 mm | - | 661 W/m² | - |
| 1777751872 | 17.22° C | 46% | 1024.5 hPa | 0 mm | - | 713 W/m² | - |
| 1777751568 | 17.78° C | 48% | 1024.6 hPa | 0 mm | - | 443 W/m² | - |
| 1777751264 | 18.33° C | 45% | 1024.5 hPa | 0 mm | - | 945 W/m² | - |
| 1777750962 | 17.22° C | 46% | 1024.7 hPa | 0 mm | - | 885 W/m² | - |
| 1777750657 | 17.78° C | 44% | 1024.6 hPa | 0 mm | - | 794 W/m² | - |
| 1777750355 | 17.22° C | 46% | 1024.7 hPa | 0 mm | - | 834 W/m² | - |
| 1777750054 | 17.78° C | 44% | 1024.8 hPa | 0 mm | - | 957 W/m² | - |
| 1777749753 | 17.78° C | 46% | 1024.8 hPa | 0 mm | - | 634 W/m² | - |
| 1777749449 | 17.22° C | 47% | 1024.7 hPa | 0 mm | - | 753 W/m² | - |
| 1777749147 | 16.67° C | 48% | 1024.9 hPa | 0 mm | - | 647 W/m² | - |
| 1777748844 | 17.22° C | 47% | 1025 hPa | 0 mm | - | 596 W/m² | - |
| 1777748541 | 17.78° C | 50% | 1025 hPa | 0 mm | - | 667 W/m² | - |
| 1777748241 | 16.67° C | 50% | 1025.1 hPa | 0 mm | - | 814 W/m² | - |
| 1777747938 | 17.22° C | 50% | 1025.2 hPa | 0 mm | - | 620 W/m² | - |
| 1777747634 | 17.22° C | 51% | 1025.1 hPa | 0 mm | - | 546 W/m² | - |
* Rain latest hour (hover to see other rain measurements)
** Current wind speed in m/s (hover to see current wind gust speed)